Year,Month,Day,Hour,Minute,Value (Times are PST for temperature in C)
2007,05,31,00,00,16.70
2007,05,31,00,01,16.60
2007,05,31,00,02,16.60
2007,05,31,00,03,16.60
2007,05,31,00,04,16.60
2007,05,31,00,05,16.60
2007,05,31,00,06,16.60
2007,05,31,00,07,16.50
2007,05,31,00,08,16.50
2007,05,31,00,09,16.40
2007,05,31,00,10,16.40
2007,05,31,00,11,16.30
2007,05,31,00,12,16.30
2007,05,31,00,13,16.30
2007,05,31,00,14,16.30
2007,05,31,00,15,16.20
2007,05,31,00,16,16.20
2007,05,31,00,17,16.20
2007,05,31,00,18,16.20
2007,05,31,00,19,16.20
2007,05,31,00,20,16.20
2007,05,31,00,21,16.20
2007,05,31,00,22,16.10
2007,05,31,00,23,16.10
2007,05,31,00,24,16.10
2007,05,31,00,25,16.10
2007,05,31,00,26,16.10
2007,05,31,00,27,16.00
2007,05,31,00,28,16.00
2007,05,31,00,29,16.00
2007,05,31,00,30,16.00
2007,05,31,00,31,15.90
2007,05,31,00,32,15.90
2007,05,31,00,33,15.90
2007,05,31,00,34,15.90
2007,05,31,00,35,15.90
2007,05,31,00,36,15.80
2007,05,31,00,37,15.80
2007,05,31,00,38,15.80
2007,05,31,00,39,15.80
2007,05,31,00,40,15.80
2007,05,31,00,41,15.80
2007,05,31,00,42,15.70
2007,05,31,00,43,15.70
2007,05,31,00,44,15.70
2007,05,31,00,45,15.60
2007,05,31,00,46,15.60
2007,05,31,00,47,15.60
2007,05,31,00,48,15.60
2007,05,31,00,49,15.50
2007,05,31,00,50,15.50
2007,05,31,00,51,15.50
2007,05,31,00,52,15.40
2007,05,31,00,53,15.40
2007,05,31,00,54,15.40
2007,05,31,00,55,15.30
2007,05,31,00,56,15.30
2007,05,31,00,57,15.30
2007,05,31,00,58,15.30
2007,05,31,00,59,15.20
2007,05,31,01,00,15.20
2007,05,31,01,01,15.20
2007,05,31,01,02,15.30
2007,05,31,01,03,15.30
2007,05,31,01,04,15.30
2007,05,31,01,05,15.30
2007,05,31,01,06,15.30
2007,05,31,01,07,15.20
2007,05,31,01,08,15.20
2007,05,31,01,09,15.20
2007,05,31,01,10,15.30
2007,05,31,01,11,15.30
2007,05,31,01,12,15.30
2007,05,31,01,13,15.30
2007,05,31,01,14,15.30
2007,05,31,01,15,15.30
2007,05,31,01,16,15.30
2007,05,31,01,17,15.30
2007,05,31,01,18,15.30
2007,05,31,01,19,15.30
2007,05,31,01,20,15.30
2007,05,31,01,21,15.20
2007,05,31,01,22,15.20
2007,05,31,01,23,15.20
2007,05,31,01,24,15.20
2007,05,31,01,25,15.10
2007,05,31,01,26,15.10
2007,05,31,01,27,15.10
2007,05,31,01,28,15.00
2007,05,31,01,29,15.00
2007,05,31,01,30,15.00
2007,05,31,01,31,15.00
2007,05,31,01,32,15.00
2007,05,31,01,33,15.00
2007,05,31,01,34,15.00
2007,05,31,01,35,15.00
2007,05,31,01,36,15.00
2007,05,31,01,37,15.00
2007,05,31,01,38,15.00
2007,05,31,01,39,15.00
2007,05,31,01,40,15.00
2007,05,31,01,41,15.00
2007,05,31,01,42,15.00
2007,05,31,01,43,15.00
2007,05,31,01,44,15.00
2007,05,31,01,45,15.00
2007,05,31,01,46,15.00
2007,05,31,01,47,15.00
2007,05,31,01,48,15.00
2007,05,31,01,49,15.00
2007,05,31,01,50,15.00
2007,05,31,01,51,15.00
2007,05,31,01,52,15.00
2007,05,31,01,53,15.00
2007,05,31,01,54,15.00
2007,05,31,01,55,15.00
2007,05,31,01,56,15.00
2007,05,31,01,57,15.00
2007,05,31,01,58,15.00
2007,05,31,01,59,15.00
2007,05,31,02,00,15.00
2007,05,31,02,01,15.00
2007,05,31,02,02,14.90
2007,05,31,02,03,14.90
2007,05,31,02,04,14.90
2007,05,31,02,05,14.80
2007,05,31,02,06,14.80
2007,05,31,02,07,14.80
2007,05,31,02,08,14.70
2007,05,31,02,09,14.70
2007,05,31,02,10,14.70
2007,05,31,02,11,14.60
2007,05,31,02,12,14.60
2007,05,31,02,13,14.60
2007,05,31,02,14,14.60
2007,05,31,02,15,14.60
2007,05,31,02,16,14.60
2007,05,31,02,17,14.50
2007,05,31,02,18,14.50
2007,05,31,02,19,14.50
2007,05,31,02,20,14.50
2007,05,31,02,21,14.50
2007,05,31,02,22,14.50
2007,05,31,02,23,14.40
2007,05,31,02,24,14.40
2007,05,31,02,25,14.40
2007,05,31,02,26,14.40
2007,05,31,02,27,14.40
2007,05,31,02,28,14.40
2007,05,31,02,29,14.40
2007,05,31,02,30,14.30
2007,05,31,02,31,14.30
2007,05,31,02,32,14.30
2007,05,31,02,33,14.30
2007,05,31,02,34,14.20
2007,05,31,02,35,14.20
2007,05,31,02,36,14.10
2007,05,31,02,37,14.10
2007,05,31,02,38,14.10
2007,05,31,02,39,14.10
2007,05,31,02,40,14.00
2007,05,31,02,41,14.00
2007,05,31,02,42,13.90
2007,05,31,02,43,13.90
2007,05,31,02,44,13.90
2007,05,31,02,45,13.80
2007,05,31,02,46,13.80
2007,05,31,02,47,13.80
2007,05,31,02,48,13.80
2007,05,31,02,49,13.80
2007,05,31,02,50,13.80
2007,05,31,02,51,13.70
2007,05,31,02,52,13.70
2007,05,31,02,53,13.70
2007,05,31,02,54,13.70
2007,05,31,02,55,13.70
2007,05,31,02,56,13.70
2007,05,31,02,57,13.70
2007,05,31,02,58,13.80
2007,05,31,02,59,13.80
2007,05,31,03,00,13.80
2007,05,31,03,01,13.80
2007,05,31,03,02,13.80
2007,05,31,03,03,13.80
2007,05,31,03,04,13.80
2007,05,31,03,05,13.80
2007,05,31,03,06,13.80
2007,05,31,03,07,13.80
2007,05,31,03,08,13.80
2007,05,31,03,09,13.80
2007,05,31,03,10,13.80
2007,05,31,03,11,13.80
2007,05,31,03,12,13.70
2007,05,31,03,13,13.70
2007,05,31,03,14,13.70
2007,05,31,03,15,13.70
2007,05,31,03,16,13.70
2007,05,31,03,17,13.60
2007,05,31,03,18,13.60
2007,05,31,03,19,13.60
2007,05,31,03,20,13.60
2007,05,31,03,21,13.60
2007,05,31,03,22,13.60
2007,05,31,03,23,13.60
2007,05,31,03,24,13.60
2007,05,31,03,25,13.60
2007,05,31,03,26,13.60
2007,05,31,03,27,13.60
2007,05,31,03,28,13.60
2007,05,31,03,29,13.60
2007,05,31,03,30,13.50
2007,05,31,03,31,13.50
2007,05,31,03,32,13.50
2007,05,31,03,33,13.40
2007,05,31,03,34,13.40
2007,05,31,03,35,13.40
2007,05,31,03,36,13.30
2007,05,31,03,37,13.30
2007,05,31,03,38,13.30
2007,05,31,03,39,13.30
2007,05,31,03,40,13.30
2007,05,31,03,41,13.20
2007,05,31,03,42,13.20
2007,05,31,03,43,13.20
2007,05,31,03,44,13.10
2007,05,31,03,45,13.10
2007,05,31,03,46,13.10
2007,05,31,03,47,13.10
2007,05,31,03,48,13.00
2007,05,31,03,49,13.00
2007,05,31,03,50,13.00
2007,05,31,03,51,13.00
2007,05,31,03,52,13.00
2007,05,31,03,53,12.90
2007,05,31,03,54,12.90
2007,05,31,03,55,12.90
2007,05,31,03,56,12.90
2007,05,31,03,57,12.90
2007,05,31,03,58,12.90
2007,05,31,03,59,12.90
2007,05,31,04,00,12.90
2007,05,31,04,01,12.90
2007,05,31,04,02,12.90
2007,05,31,04,03,12.90
2007,05,31,04,04,12.90
2007,05,31,04,05,12.90
2007,05,31,04,06,12.90
2007,05,31,04,07,12.90
2007,05,31,04,08,12.90
2007,05,31,04,09,12.90
2007,05,31,04,10,12.90
2007,05,31,04,11,12.90
2007,05,31,04,12,12.90
2007,05,31,04,13,12.90
2007,05,31,04,14,12.90
2007,05,31,04,15,12.90
2007,05,31,04,16,12.90
2007,05,31,04,17,12.80
2007,05,31,04,18,12.80
2007,05,31,04,19,12.80
2007,05,31,04,20,12.80
2007,05,31,04,21,12.80
2007,05,31,04,22,12.70
2007,05,31,04,23,12.70
2007,05,31,04,24,12.70
2007,05,31,04,25,12.70
2007,05,31,04,26,12.70
2007,05,31,04,27,12.70
2007,05,31,04,28,12.70
2007,05,31,04,29,12.70
2007,05,31,04,30,12.70
2007,05,31,04,31,12.70
2007,05,31,04,32,12.70
2007,05,31,04,33,12.70
2007,05,31,04,34,12.60
2007,05,31,04,35,12.60
2007,05,31,04,36,12.70
2007,05,31,04,37,12.70
2007,05,31,04,38,12.70
2007,05,31,04,39,12.60
2007,05,31,04,40,12.60
2007,05,31,04,41,12.70
2007,05,31,04,42,12.70
2007,05,31,04,43,12.70
2007,05,31,04,44,12.70
2007,05,31,04,45,12.60
2007,05,31,04,46,12.60
2007,05,31,04,47,12.60
2007,05,31,04,48,12.60
2007,05,31,04,49,12.60
2007,05,31,04,50,12.70
2007,05,31,04,51,12.60
2007,05,31,04,52,12.60
2007,05,31,04,53,12.60
2007,05,31,04,54,12.60
2007,05,31,04,55,12.60
2007,05,31,04,56,12.60
2007,05,31,04,57,12.60
2007,05,31,04,58,12.60
2007,05,31,04,59,12.50
2007,05,31,05,00,12.50
2007,05,31,05,01,12.40
2007,05,31,05,02,12.40
2007,05,31,05,03,12.40
2007,05,31,05,04,12.30
2007,05,31,05,05,12.30
2007,05,31,05,06,12.30
2007,05,31,05,07,12.30
2007,05,31,05,08,12.20
2007,05,31,05,09,12.20
2007,05,31,05,10,12.20
2007,05,31,05,11,12.20
2007,05,31,05,12,12.20
2007,05,31,05,13,12.20
2007,05,31,05,14,12.20
2007,05,31,05,15,12.20
2007,05,31,05,16,12.20
2007,05,31,05,17,12.20
2007,05,31,05,18,12.20
2007,05,31,05,19,12.20
2007,05,31,05,20,12.20
2007,05,31,05,21,12.10
2007,05,31,05,22,12.10
2007,05,31,05,23,12.10
2007,05,31,05,24,12.00
2007,05,31,05,25,12.00
2007,05,31,05,26,12.00
2007,05,31,05,27,12.00
2007,05,31,05,28,12.00
2007,05,31,05,29,12.00
2007,05,31,05,30,12.00
2007,05,31,05,31,12.00
2007,05,31,05,32,11.90
2007,05,31,05,33,11.90
2007,05,31,05,34,11.90
2007,05,31,05,35,11.90
2007,05,31,05,36,11.90
2007,05,31,05,37,11.90
2007,05,31,05,38,11.90
2007,05,31,05,39,11.90
2007,05,31,05,40,11.90
2007,05,31,05,41,11.90
2007,05,31,05,42,11.90
2007,05,31,05,43,11.90
2007,05,31,05,44,11.90
2007,05,31,05,45,11.90
2007,05,31,05,46,11.90
2007,05,31,05,47,11.90
2007,05,31,05,48,11.90
2007,05,31,05,49,11.90
2007,05,31,05,50,12.00
2007,05,31,05,51,12.00
2007,05,31,05,52,12.00
2007,05,31,05,53,12.00
2007,05,31,05,54,12.00
2007,05,31,05,55,12.00
2007,05,31,05,56,12.00
2007,05,31,05,57,12.00
2007,05,31,05,58,12.00
2007,05,31,05,59,12.00
2007,05,31,06,00,11.90
2007,05,31,06,01,11.90
2007,05,31,06,02,11.90
2007,05,31,06,03,11.90
2007,05,31,06,04,11.90
2007,05,31,06,05,11.90
2007,05,31,06,06,11.90
2007,05,31,06,07,11.90
2007,05,31,06,08,11.90
2007,05,31,06,09,11.90
2007,05,31,06,10,11.90
2007,05,31,06,11,11.90
2007,05,31,06,12,11.90
2007,05,31,06,13,11.90
2007,05,31,06,14,11.90
2007,05,31,06,15,11.90
2007,05,31,06,16,11.90
2007,05,31,06,17,11.90
2007,05,31,06,18,11.90
2007,05,31,06,19,11.90
2007,05,31,06,20,11.90
2007,05,31,06,21,11.90
2007,05,31,06,22,12.00
2007,05,31,06,23,12.00
2007,05,31,06,24,12.00
2007,05,31,06,25,12.10
2007,05,31,06,26,12.10
2007,05,31,06,27,12.10
2007,05,31,06,28,12.10
2007,05,31,06,29,12.10
2007,05,31,06,30,12.10
2007,05,31,06,31,12.10
2007,05,31,06,32,12.10
2007,05,31,06,33,12.10
2007,05,31,06,34,12.10
2007,05,31,06,35,12.20
2007,05,31,06,36,12.20
2007,05,31,06,37,12.20
2007,05,31,06,38,12.20
2007,05,31,06,39,12.20
2007,05,31,06,40,12.20
2007,05,31,06,41,12.20
2007,05,31,06,42,12.20
2007,05,31,06,43,12.20
2007,05,31,06,44,12.20
2007,05,31,06,45,12.20
2007,05,31,06,46,12.20
2007,05,31,06,47,12.30
2007,05,31,06,48,12.30
2007,05,31,06,49,12.30
2007,05,31,06,50,12.30
2007,05,31,06,51,12.30
2007,05,31,06,52,12.30
2007,05,31,06,53,12.30
2007,05,31,06,54,12.40
2007,05,31,06,55,12.40
2007,05,31,06,56,12.40
2007,05,31,06,57,12.40
2007,05,31,06,58,12.40
2007,05,31,06,59,12.40
2007,05,31,07,00,12.50
2007,05,31,07,01,12.50
2007,05,31,07,02,12.50
2007,05,31,07,03,12.50
2007,05,31,07,04,12.50
2007,05,31,07,05,12.60
2007,05,31,07,06,12.60
2007,05,31,07,07,12.60
2007,05,31,07,08,12.60
2007,05,31,07,09,12.70
2007,05,31,07,10,12.70
2007,05,31,07,11,12.70
2007,05,31,07,12,12.70
2007,05,31,07,13,12.80
2007,05,31,07,14,12.80
2007,05,31,07,15,12.80
2007,05,31,07,16,12.80
2007,05,31,07,17,12.80
2007,05,31,07,18,12.80
2007,05,31,07,19,12.90
2007,05,31,07,20,12.90
2007,05,31,07,21,12.90
2007,05,31,07,22,13.00
2007,05,31,07,23,13.00
2007,05,31,07,24,13.10
2007,05,31,07,25,13.10
2007,05,31,07,26,13.10
2007,05,31,07,27,13.10
2007,05,31,07,28,13.20
2007,05,31,07,29,13.20
2007,05,31,07,30,13.20
2007,05,31,07,31,13.20
2007,05,31,07,32,13.30
2007,05,31,07,33,13.30
2007,05,31,07,34,13.30
2007,05,31,07,35,13.40
2007,05,31,07,36,13.40
2007,05,31,07,37,13.40
2007,05,31,07,38,13.50
2007,05,31,07,39,13.50
2007,05,31,07,40,13.60
2007,05,31,07,41,13.60
2007,05,31,07,42,13.70
2007,05,31,07,43,13.70
2007,05,31,07,44,13.80
2007,05,31,07,45,13.80
2007,05,31,07,46,13.80
2007,05,31,07,47,13.90
2007,05,31,07,48,13.90
2007,05,31,07,49,14.00
2007,05,31,07,50,14.00
2007,05,31,07,51,14.10
2007,05,31,07,52,14.10
2007,05,31,07,53,14.20
2007,05,31,07,54,14.20
2007,05,31,07,55,14.30
2007,05,31,07,56,14.30
2007,05,31,07,57,14.30
2007,05,31,07,58,14.40
2007,05,31,07,59,14.40
2007,05,31,08,00,14.50
2007,05,31,08,01,14.50
2007,05,31,08,02,14.60
2007,05,31,08,03,14.60
2007,05,31,08,04,14.70
2007,05,31,08,05,14.70
2007,05,31,08,06,14.70
2007,05,31,08,07,14.80
2007,05,31,08,08,14.80
2007,05,31,08,09,14.80
2007,05,31,08,10,15.00
2007,05,31,08,11,15.00
2007,05,31,08,12,15.00
2007,05,31,08,13,15.00
2007,05,31,08,14,15.00
2007,05,31,08,15,15.00
2007,05,31,08,16,15.00
2007,05,31,08,17,15.10
2007,05,31,08,18,15.20
2007,05,31,08,19,15.20
2007,05,31,08,20,15.20
2007,05,31,08,21,15.30
2007,05,31,08,22,15.30
2007,05,31,08,23,15.30
2007,05,31,08,24,15.30
2007,05,31,08,25,15.40
2007,05,31,08,26,15.40
2007,05,31,08,27,15.40
2007,05,31,08,28,15.50
2007,05,31,08,29,15.50
2007,05,31,08,30,15.60
2007,05,31,08,31,15.60
2007,05,31,08,32,15.70
2007,05,31,08,33,15.70
2007,05,31,08,34,15.80
2007,05,31,08,35,15.90
2007,05,31,08,36,16.00
2007,05,31,08,37,16.10
2007,05,31,08,38,16.20
2007,05,31,08,39,16.30
2007,05,31,08,40,16.40
2007,05,31,08,41,16.50
2007,05,31,08,42,16.50
2007,05,31,08,43,16.60
2007,05,31,08,44,16.70
2007,05,31,08,45,16.80
2007,05,31,08,46,16.80
2007,05,31,08,47,16.90
2007,05,31,08,48,17.00
2007,05,31,08,49,17.10
2007,05,31,08,50,17.20
2007,05,31,08,51,17.30
2007,05,31,08,52,17.40
2007,05,31,08,53,17.50
2007,05,31,08,54,17.60
2007,05,31,08,55,17.70
2007,05,31,08,56,17.80
2007,05,31,08,57,17.80
2007,05,31,08,58,17.90
2007,05,31,08,59,18.00
2007,05,31,09,00,18.00
2007,05,31,09,01,18.10
2007,05,31,09,02,18.10
2007,05,31,09,03,18.20
2007,05,31,09,04,18.20
2007,05,31,09,05,18.20
2007,05,31,09,06,18.30
2007,05,31,09,07,18.40
2007,05,31,09,08,18.50
2007,05,31,09,09,18.60
2007,05,31,09,10,18.80
2007,05,31,09,11,18.90
2007,05,31,09,12,19.00
2007,05,31,09,13,19.10
2007,05,31,09,14,19.20
2007,05,31,09,15,19.30
2007,05,31,09,16,19.40
2007,05,31,09,17,19.50
2007,05,31,09,18,19.70
2007,05,31,09,19,19.80
2007,05,31,09,20,19.80
2007,05,31,09,21,20.00
2007,05,31,09,22,20.00
2007,05,31,09,23,20.10
2007,05,31,09,24,20.20
2007,05,31,09,25,20.30
2007,05,31,09,26,20.30
2007,05,31,09,27,20.40
2007,05,31,09,28,20.40
2007,05,31,09,29,20.50
2007,05,31,09,30,20.60
2007,05,31,09,31,20.60
2007,05,31,09,32,20.60
2007,05,31,09,33,20.70
2007,05,31,09,34,20.70
2007,05,31,09,35,20.70
2007,05,31,09,36,20.70
2007,05,31,09,37,20.70
2007,05,31,09,38,20.70
2007,05,31,09,39,20.80
2007,05,31,09,40,20.80
2007,05,31,09,41,20.80
2007,05,31,09,42,20.80
2007,05,31,09,43,20.90
2007,05,31,09,44,20.90
2007,05,31,09,45,21.00
2007,05,31,09,46,21.00
2007,05,31,09,47,21.00
2007,05,31,09,48,21.00
2007,05,31,09,49,21.00
2007,05,31,09,50,21.00
2007,05,31,09,51,21.10
2007,05,31,09,52,21.10
2007,05,31,09,53,21.20
2007,05,31,09,54,21.20
2007,05,31,09,55,21.20
2007,05,31,09,56,21.30
2007,05,31,09,57,21.30
2007,05,31,09,58,21.30
2007,05,31,09,59,21.30
2007,05,31,10,00,21.30
2007,05,31,10,01,21.20
2007,05,31,10,02,21.20
2007,05,31,10,03,21.20
2007,05,31,10,04,21.20
2007,05,31,10,05,21.20
2007,05,31,10,06,21.20
2007,05,31,10,07,21.20
2007,05,31,10,08,21.20
2007,05,31,10,09,21.20
2007,05,31,10,10,21.20
2007,05,31,10,11,21.20
2007,05,31,10,12,21.20
2007,05,31,10,13,21.20
2007,05,31,10,14,21.20
2007,05,31,10,15,21.10
2007,05,31,10,16,21.10
2007,05,31,10,17,21.10
2007,05,31,10,18,21.10
2007,05,31,10,19,21.10
2007,05,31,10,20,21.10
2007,05,31,10,21,21.20
2007,05,31,10,22,21.20
2007,05,31,10,23,21.20
2007,05,31,10,24,21.20
2007,05,31,10,25,21.20
2007,05,31,10,26,21.20
2007,05,31,10,27,21.20
2007,05,31,10,28,21.20
2007,05,31,10,29,21.20
2007,05,31,10,30,21.30
2007,05,31,10,31,21.30
2007,05,31,10,32,21.30
2007,05,31,10,33,21.40
2007,05,31,10,34,21.40
2007,05,31,10,35,21.40
2007,05,31,10,36,21.40
2007,05,31,10,37,21.40
2007,05,31,10,38,21.40
2007,05,31,10,39,21.50
2007,05,31,10,40,21.60
2007,05,31,10,41,21.60
2007,05,31,10,42,21.70
2007,05,31,10,43,21.70
2007,05,31,10,44,21.80
2007,05,31,10,45,21.80
2007,05,31,10,46,21.90
2007,05,31,10,47,21.90
2007,05,31,10,48,22.00
2007,05,31,10,49,22.00
2007,05,31,10,50,22.10
2007,05,31,10,51,22.10
2007,05,31,10,52,22.10
2007,05,31,10,53,22.10
2007,05,31,10,54,22.10
2007,05,31,10,55,22.00
2007,05,31,10,56,22.00
2007,05,31,10,57,21.90
2007,05,31,10,58,21.90
2007,05,31,10,59,21.90
2007,05,31,11,00,21.90
2007,05,31,11,01,21.90
2007,05,31,11,02,21.80
2007,05,31,11,03,21.80
2007,05,31,11,04,21.80
2007,05,31,11,05,21.80
2007,05,31,11,06,21.80
2007,05,31,11,07,21.80
2007,05,31,11,08,21.80
2007,05,31,11,09,21.90
2007,05,31,11,10,21.90
2007,05,31,11,11,21.90
2007,05,31,11,12,21.90
2007,05,31,11,13,22.00
2007,05,31,11,14,22.00
2007,05,31,11,15,22.10
2007,05,31,11,16,22.10
2007,05,31,11,17,22.20
2007,05,31,11,18,22.30
2007,05,31,11,19,22.30
2007,05,31,11,20,22.40
2007,05,31,11,21,22.40
2007,05,31,11,22,22.40
2007,05,31,11,23,22.50
2007,05,31,11,24,22.50
2007,05,31,11,25,22.50
2007,05,31,11,26,22.50
2007,05,31,11,27,22.50
2007,05,31,11,28,22.40
2007,05,31,11,29,22.40
2007,05,31,11,30,22.40
2007,05,31,11,31,22.40
2007,05,31,11,32,22.30
2007,05,31,11,33,22.30
2007,05,31,11,34,22.30
2007,05,31,11,35,22.30
2007,05,31,11,36,22.40
2007,05,31,11,37,22.50
2007,05,31,11,38,22.50
2007,05,31,11,39,22.60
2007,05,31,11,40,22.70
2007,05,31,11,41,22.70
2007,05,31,11,42,22.70
2007,05,31,11,43,22.70
2007,05,31,11,44,22.70
2007,05,31,11,45,22.70
2007,05,31,11,46,22.70
2007,05,31,11,47,22.70
2007,05,31,11,48,22.60
2007,05,31,11,49,22.60
2007,05,31,11,50,22.60
2007,05,31,11,51,22.60
2007,05,31,11,52,22.60
2007,05,31,11,53,22.60
2007,05,31,11,54,22.60
2007,05,31,11,55,22.70
2007,05,31,11,56,22.80
2007,05,31,11,57,22.80
2007,05,31,11,58,22.80
2007,05,31,11,59,22.80
2007,05,31,12,00,22.80
2007,05,31,12,01,22.90
2007,05,31,12,02,22.90
2007,05,31,12,03,23.00
2007,05,31,12,04,23.00
2007,05,31,12,05,23.00
2007,05,31,12,06,23.00
2007,05,31,12,07,22.90
2007,05,31,12,08,22.90
2007,05,31,12,09,22.90
2007,05,31,12,10,22.90
2007,05,31,12,11,23.00
2007,05,31,12,12,23.00
2007,05,31,12,13,23.00
2007,05,31,12,14,23.00
2007,05,31,12,15,23.00
2007,05,31,12,16,22.90
2007,05,31,12,17,22.90
2007,05,31,12,18,22.80
2007,05,31,12,19,22.80
2007,05,31,12,20,22.80
2007,05,31,12,21,22.80
2007,05,31,12,22,22.80
2007,05,31,12,23,22.80
2007,05,31,12,24,22.80
2007,05,31,12,25,22.80
2007,05,31,12,26,22.80
2007,05,31,12,27,22.80
2007,05,31,12,28,22.80
2007,05,31,12,29,22.70
2007,05,31,12,30,22.60
2007,05,31,12,31,22.50
2007,05,31,12,32,22.40
2007,05,31,12,33,22.30
2007,05,31,12,34,22.30
2007,05,31,12,35,22.20
2007,05,31,12,36,22.20
2007,05,31,12,37,22.20
2007,05,31,12,38,22.20
2007,05,31,12,39,22.30
2007,05,31,12,40,22.30
2007,05,31,12,41,22.40
2007,05,31,12,42,22.40
2007,05,31,12,43,22.30
2007,05,31,12,44,22.30
2007,05,31,12,45,22.30
2007,05,31,12,46,22.30
2007,05,31,12,47,22.40
2007,05,31,12,48,22.40
2007,05,31,12,49,22.50
2007,05,31,12,50,22.50
2007,05,31,12,51,22.60
2007,05,31,12,52,22.60
2007,05,31,12,53,22.60
2007,05,31,12,54,22.70
2007,05,31,12,55,22.70
2007,05,31,12,56,22.70
2007,05,31,12,57,22.80
2007,05,31,12,58,22.90
2007,05,31,12,59,22.90
2007,05,31,13,00,23.00
2007,05,31,13,01,23.10
2007,05,31,13,02,23.10
2007,05,31,13,03,23.10
2007,05,31,13,04,23.20
2007,05,31,13,05,23.20
2007,05,31,13,06,23.30
2007,05,31,13,07,23.30
2007,05,31,13,08,23.30
2007,05,31,13,09,23.30
2007,05,31,13,10,23.40
2007,05,31,13,11,23.40
2007,05,31,13,12,23.30
2007,05,31,13,13,23.30
2007,05,31,13,14,23.20
2007,05,31,13,15,23.20
2007,05,31,13,16,23.20
2007,05,31,13,17,23.10
2007,05,31,13,18,23.10
2007,05,31,13,19,23.00
2007,05,31,13,20,23.00
2007,05,31,13,21,22.90
2007,05,31,13,22,22.90
2007,05,31,13,23,22.90
2007,05,31,13,24,22.90
2007,05,31,13,25,22.90
2007,05,31,13,26,23.00
2007,05,31,13,27,23.00
2007,05,31,13,28,23.10
2007,05,31,13,29,23.00
2007,05,31,13,30,23.10
2007,05,31,13,31,23.10
2007,05,31,13,32,23.10
2007,05,31,13,33,23.10
2007,05,31,13,34,23.10
2007,05,31,13,35,23.10
2007,05,31,13,36,23.20
2007,05,31,13,37,23.30
2007,05,31,13,38,23.30
2007,05,31,13,39,23.40
2007,05,31,13,40,23.60
2007,05,31,13,41,23.60
2007,05,31,13,42,23.70
2007,05,31,13,43,23.80
2007,05,31,13,44,23.80
2007,05,31,13,45,23.80
2007,05,31,13,46,23.80
2007,05,31,13,47,23.80
2007,05,31,13,48,23.70
2007,05,31,13,49,23.70
2007,05,31,13,50,23.60
2007,05,31,13,51,23.60
2007,05,31,13,52,23.70
2007,05,31,13,53,23.60
2007,05,31,13,54,23.60
2007,05,31,13,55,23.50
2007,05,31,13,56,23.40
2007,05,31,13,57,23.30
2007,05,31,13,58,23.30
2007,05,31,13,59,23.20
2007,05,31,14,00,23.20
2007,05,31,14,01,23.20
2007,05,31,14,02,23.20
2007,05,31,14,03,23.20
2007,05,31,14,04,23.10
2007,05,31,14,05,23.10
2007,05,31,14,06,23.10
2007,05,31,14,07,23.10
2007,05,31,14,08,23.10
2007,05,31,14,09,23.10
2007,05,31,14,10,23.10
2007,05,31,14,11,23.10
2007,05,31,14,12,23.10
2007,05,31,14,13,23.10
2007,05,31,14,14,23.10
2007,05,31,14,15,23.20
2007,05,31,14,16,23.20
2007,05,31,14,17,23.20
2007,05,31,14,18,23.20
2007,05,31,14,19,23.30
2007,05,31,14,20,23.30
2007,05,31,14,21,23.40
2007,05,31,14,22,23.50
2007,05,31,14,23,23.60
2007,05,31,14,24,23.70
2007,05,31,14,25,23.70
2007,05,31,14,26,23.80
2007,05,31,14,27,23.80
2007,05,31,14,28,23.80
2007,05,31,14,29,23.80
2007,05,31,14,30,23.80
2007,05,31,14,31,23.90
2007,05,31,14,32,23.90
2007,05,31,14,33,23.90
2007,05,31,14,34,23.90
2007,05,31,14,35,23.80
2007,05,31,14,36,23.70
2007,05,31,14,37,23.70
2007,05,31,14,38,23.70
2007,05,31,14,39,23.70
2007,05,31,14,40,23.70
2007,05,31,14,41,23.70
2007,05,31,14,42,23.70
2007,05,31,14,43,23.70
2007,05,31,14,44,23.70
2007,05,31,14,45,23.80
2007,05,31,14,46,23.90
2007,05,31,14,47,24.00
2007,05,31,14,48,24.00
2007,05,31,14,49,24.00
2007,05,31,14,50,24.00
2007,05,31,14,51,23.90
2007,05,31,14,52,23.80
2007,05,31,14,53,23.80
2007,05,31,14,54,23.80
2007,05,31,14,55,23.80
2007,05,31,14,56,23.90
2007,05,31,14,57,23.90
2007,05,31,14,58,24.00
2007,05,31,14,59,24.00
2007,05,31,15,00,24.10
2007,05,31,15,01,24.20
2007,05,31,15,02,24.30
2007,05,31,15,03,24.40
2007,05,31,15,04,24.40
2007,05,31,15,05,24.40
2007,05,31,15,06,24.40
2007,05,31,15,07,24.50
2007,05,31,15,08,24.60
2007,05,31,15,09,24.60
2007,05,31,15,10,24.60
2007,05,31,15,11,24.60
2007,05,31,15,12,24.70
2007,05,31,15,13,24.80
2007,05,31,15,14,24.80
2007,05,31,15,15,24.90
2007,05,31,15,16,25.00
2007,05,31,15,17,25.00
2007,05,31,15,18,25.00
2007,05,31,15,19,25.00
2007,05,31,15,20,25.10
2007,05,31,15,21,25.10
2007,05,31,15,22,25.10
2007,05,31,15,23,25.00
2007,05,31,15,24,25.00
2007,05,31,15,25,24.90
2007,05,31,15,26,24.90
2007,05,31,15,27,24.80
2007,05,31,15,28,24.80
2007,05,31,15,29,24.80
2007,05,31,15,30,24.90
2007,05,31,15,31,25.00
2007,05,31,15,32,25.00
2007,05,31,15,33,25.10
2007,05,31,15,34,25.10
2007,05,31,15,35,25.10
2007,05,31,15,36,25.20
2007,05,31,15,37,25.30
2007,05,31,15,38,25.30
2007,05,31,15,39,25.30
2007,05,31,15,40,25.30
2007,05,31,15,41,25.30
2007,05,31,15,42,25.20
2007,05,31,15,43,25.10
2007,05,31,15,44,25.10
2007,05,31,15,45,25.10
2007,05,31,15,46,25.10
2007,05,31,15,47,25.10
2007,05,31,15,48,25.20
2007,05,31,15,49,25.20
2007,05,31,15,50,25.20
2007,05,31,15,51,25.20
2007,05,31,15,52,25.20
2007,05,31,15,53,25.30
2007,05,31,15,54,25.30
2007,05,31,15,55,25.30
2007,05,31,15,56,25.40
2007,05,31,15,57,25.50
2007,05,31,15,58,25.60
2007,05,31,15,59,25.60
2007,05,31,16,00,25.60
2007,05,31,16,01,25.60
2007,05,31,16,02,25.60
2007,05,31,16,03,25.60
2007,05,31,16,04,25.60
2007,05,31,16,05,25.60
2007,05,31,16,06,25.60
2007,05,31,16,07,25.70
2007,05,31,16,08,25.70
2007,05,31,16,09,25.80
2007,05,31,16,10,25.80
2007,05,31,16,11,25.70
2007,05,31,16,12,25.70
2007,05,31,16,13,25.70
2007,05,31,16,14,25.70
2007,05,31,16,15,25.70
2007,05,31,16,16,25.60
2007,05,31,16,17,25.60
2007,05,31,16,18,25.50
2007,05,31,16,19,25.50
2007,05,31,16,20,25.50
2007,05,31,16,21,25.50
2007,05,31,16,22,25.40
2007,05,31,16,23,25.40
2007,05,31,16,24,25.30
2007,05,31,16,25,25.30
2007,05,31,16,26,25.40
2007,05,31,16,27,25.40
2007,05,31,16,28,25.40
2007,05,31,16,29,25.40
2007,05,31,16,30,25.40
2007,05,31,16,31,25.40
2007,05,31,16,32,25.40
2007,05,31,16,33,25.30
2007,05,31,16,34,25.30
2007,05,31,16,35,25.30
2007,05,31,16,36,25.30
2007,05,31,16,37,25.40
2007,05,31,16,38,25.40
2007,05,31,16,39,25.40
2007,05,31,16,40,25.40
2007,05,31,16,41,25.30
2007,05,31,16,42,25.20
2007,05,31,16,43,25.10
2007,05,31,16,44,25.00
2007,05,31,16,45,24.90
2007,05,31,16,46,24.80
2007,05,31,16,47,24.80
2007,05,31,16,48,24.70
2007,05,31,16,49,24.70
2007,05,31,16,50,24.60
2007,05,31,16,51,24.40
2007,05,31,16,52,24.30
2007,05,31,16,53,24.20
2007,05,31,16,54,24.00
2007,05,31,16,55,24.00
2007,05,31,16,56,23.90
2007,05,31,16,57,23.80
2007,05,31,16,58,23.70
2007,05,31,16,59,23.60
2007,05,31,17,00,23.60
2007,05,31,17,01,23.60
2007,05,31,17,02,23.60
2007,05,31,17,03,23.60
2007,05,31,17,04,23.70
2007,05,31,17,05,23.80
2007,05,31,17,06,23.90
2007,05,31,17,07,24.00
2007,05,31,17,08,24.10
2007,05,31,17,09,24.20
2007,05,31,17,10,24.30
2007,05,31,17,11,24.30
2007,05,31,17,12,24.40
2007,05,31,17,13,24.50
2007,05,31,17,14,24.60
2007,05,31,17,15,24.60
2007,05,31,17,16,24.70
2007,05,31,17,17,24.70
2007,05,31,17,18,24.70
2007,05,31,17,19,24.60